Vorticity
20 5 -8 -1 7 10 5 5 6 7 5 6 6 7 9 8 6 6 3 3 4 5 4 4 7 7 7 7 6 6 7 7 7 7 6 6 5 5 5 8 7 6 -2
1 -1 1 8 5 0 9 5 5 6 6 6 6 6 10 9 7 5 4 2 5 5 3 4 8 9 9 8 8 9 9 8 7 7 5 4 4 5 6 3 6 2 4
14 10 3 3 1 3 5 6 6 6 6 6 6 6 7 9 9 3 4 2 4 4 2 4 9 10 9 8 7 7 6 5 4 4 5 5 6 5 5 4 4 4 4
-2 7 12 10 7 7 6 6 6 6 6 6 9 8 7 6 5 5 4 3 4 3 3 5 9 10 9 8 7 5 4 4 4 4 5 5 5 4 4 4 4 4 4
7 7 6 0 6 7 7 5 6 6 6 6 6 6 8 4 3 3 4 4 4 3 3 6 9 9 9 6 5 4 5 4 4 5 5 5 4 4 4 4 4 5 5
2 -0 5 14 13 20 7 4 5 6 5 6 7 3 11 3 1 5 5 3 4 3 3 6 9 8 7 5 5 4 4 4 4 4 4 4 4 4 4 4 4 4 5
14 10 8 -5 -7 -3 19 6 5 6 6 6 7 7 4 8 2 5 4 4 4 3 3 6 8 7 5 6 5 5 4 4 4 4 4 4 3 3 4 4 4 3 4
9 2 0 14 -6 -2 -8 8 8 6 6 6 8 8 5 8 3 3 2 3 4 4 4 6 7 6 5 6 6 5 4 5 4 4 4 3 4 4 4 4 4 5 5
2 6 7 0 2 5 6 2 3 7 7 6 7 10 7 9 2 2 5 3 5 5 4 6 7 5 5 6 5 4 5 4 5 4 4 4 5 5 4 4 4 4 5
8 1 11 6 14 -9 4 7 11 2 9 8 10 10 7 6 6 6 4 2 5 4 5 6 6 5 5 5 5 5 5 5 5 5 5 5 5 5 5 5 5 5 5
15 4 7 12 11 16 11 7 -0 8 9 8 5 8 10 3 11 -5 3 3 5 4 4 6 5 4 4 5 5 5 5 6 5 5 6 6 5 5 5 5 5 6 5
2 3 -0 8 -1 5 17 20 15 10 8 13 7 7 7 7 10 4 3 4 6 4 4 5 5 5 4 5 4 5 5 6 6 6 6 5 5 5 6 6 5 5 6
3 3 7 6 11 0 1 12 2 8 -0 7 9 7 12 2 8 7 5 4 5 5 4 5 5 5 4 4 4 4 5 6 6 7 6 5 6 5 5 6 6 5 6
-1 -0 3 2 1 7 2 12 14 15 -4 3 8 9 8 5 6 7 4 4 5 6 4 5 4 4 5 4 5 5 6 6 7 7 6 6 6 5 5 6 5 6 6
5 6 -0 -2 4 7 10 6 8 34 15 26 12 5 6 6 6 3 4 3 9 7 4 4 4 5 4 4 4 5 6 6 6 6 6 6 6 5 7 6 6 6 6
9 -0 -4 2 5 2 0 -2 7 -7 -6 30 16 -1 10 1 11 5 3 4 13 5 5 3 5 5 2 3 4 4 5 6 7 7 7 6 6 6 6 5 7 7 7
3 9 8 -4 1 0 2 -2 5 3 1 5 -4 34 3 -1 6 2 0 11 9 7 4 3 4 4 2 4 5 6 6 6 7 7 6 6 7 8 6 5 6 6 6
8 6 12 7 -2 1 7 5 6 2 10 10 6 1 15 4 7 8 5 13 8 7 4 3 5 3 3 3 4 5 7 6 5 5 5 5 6 6 5 5 5 5 5
3 5 7 13 8 3 -9 18 14 2 -3 4 13 3 14 13 9 5 5 15 17 7 3 3 5 2 2 3 2 5 5 5 5 4 4 4 5 5 5 5 6 6 6
9 4 7 8 7 17 8 1 -2 19 7 8 7 13 13 23 8 31 15 -32 16 6 1 3 4 1 2 2 3 5 5 5 6 6 5 5 9 5 5 5 6 6 6
11 6 3 8 5 3 4 2 -1 10 6 1 9 31 8 16 -27 20 26 0 6 -9 15 3 3 1 2 2 3 4 5 5 5 5 4 4 7 6 7 1 -1 7 6
21 17 17 3 4 13 6 3 22 20 14 20 30 47 26 10 18 -19 9 40 31 23 4 3 3 2 2 3 3 4 4 5 6 4 6 6 11 6 1 11 16 9 7
11 6 8 8 -4 6 12 16 14 15 9 30 19 29 -2 21 33 -48 -31 18 3 3 7 4 4 3 3 3 4 5 7 5 8 2 2 3 14 -5 1 0 6 7 11
11 11 2 8 5 -10 9 0 4 -5 17 -17 9 27 14 3 29 -9 30 4 16 11 7 5 5 4 3 2 5 7 9 6 3 4 1 1 7 -5 -20 12 8 14 9
10 11 5 10 2 1 7 19 10 5 21 1 -5 5 15 35 8 6 15 11 9 14 10 7 3 2 3 4 5 5 8 1 -9 -17 6 9 -5 5 6 14 16 15 5
10 11 23 13 1 13 -3 5 7 -2 -0 44 22 29 12 16 11 1 -2 6 7 6 7 6 9 5 4 4 5 1 -1 -12 -7 -24 5 -18 23 -8 19 7 10 15 10
Height
3148 3148 3149 3149 3150 3150 3150 3152 3153 3153 3154 3154 3155 3156 3157 3158 3159 3161 3162 3163 3163 3164 3164 3164 3163 3163 3162 3162 3162 3162 3162 3162 3162 3162 3162 3162 3162 3162 3162 3162 3161 3161 3161
3147 3147 3148 3149 3149 3150 3150 3150 3152 3153 3154 3154 3155 3156 3157 3158 3159 3161 3162 3164 3164 3164 3164 3165 3164 3163 3163 3163 3163 3163 3164 3164 3164 3164 3164 3164 3163 3163 3163 3163 3162 3162 3162
3145 3146 3147 3148 3149 3149 3150 3150 3151 3152 3153 3154 3154 3156 3157 3158 3160 3161 3163 3164 3165 3165 3165 3165 3165 3165 3164 3164 3164 3164 3164 3165 3165 3165 3165 3165 3165 3165 3165 3164 3164 3164 3163
3143 3144 3145 3146 3147 3148 3148 3150 3150 3151 3152 3153 3154 3156 3157 3158 3160 3162 3163 3164 3165 3165 3165 3165 3165 3166 3165 3165 3165 3165 3165 3166 3167 3167 3167 3167 3166 3166 3166 3166 3166 3165 3164
3141 3142 3144 3145 3145 3146 3147 3148 3149 3150 3151 3152 3154 3155 3157 3158 3160 3162 3164 3164 3165 3165 3166 3166 3166 3166 3167 3166 3166 3166 3167 3167 3168 3168 3168 3168 3168 3167 3167 3167 3166 3166 3165
3138 3140 3141 3143 3144 3144 3144 3146 3148 3149 3150 3151 3153 3155 3156 3158 3159 3161 3163 3164 3165 3165 3166 3166 3166 3167 3168 3168 3167 3167 3168 3168 3168 3169 3169 3169 3169 3168 3168 3167 3167 3166 3165
3136 3136 3138 3139 3141 3143 3144 3144 3146 3147 3149 3150 3151 3154 3156 3157 3158 3160 3162 3164 3165 3165 3166 3166 3167 3167 3168 3169 3168 3168 3169 3169 3169 3169 3169 3170 3169 3168 3167 3167 3167 3166 3165
3131 3133 3135 3136 3138 3140 3143 3144 3144 3146 3147 3148 3149 3152 3155 3156 3158 3159 3161 3163 3164 3165 3166 3166 3167 3168 3169 3169 3169 3169 3169 3170 3170 3170 3170 3170 3170 3169 3168 3167 3167 3166 3166
3127 3128 3130 3133 3136 3137 3139 3142 3144 3145 3146 3147 3148 3150 3153 3155 3157 3158 3160 3161 3163 3165 3165 3166 3167 3168 3168 3169 3169 3169 3169 3169 3170 3170 3170 3170 3170 3170 3169 3168 3167 3166 3165
3123 3124 3126 3128 3132 3133 3134 3137 3140 3142 3144 3145 3146 3147 3150 3152 3155 3156 3158 3160 3162 3164 3165 3165 3166 3167 3168 3169 3169 3170 3170 3170 3170 3170 3170 3170 3170 3169 3168 3168 3167 3166 3165
3117 3120 3122 3124 3127 3129 3131 3133 3137 3139 3140 3142 3144 3146 3148 3148 3151 3154 3157 3158 3160 3162 3164 3164 3165 3167 3167 3168 3169 3170 3170 3170 3170 3170 3170 3170 3169 3169 3168 3167 3166 3165 3164
3112 3116 3119 3120 3123 3125 3127 3130 3133 3135 3137 3138 3140 3143 3145 3146 3148 3153 3155 3157 3158 3160 3162 3163 3164 3166 3167 3168 3168 3169 3170 3169 3169 3168 3168 3168 3168 3167 3167 3166 3166 3164 3163
3107 3110 3112 3116 3119 3122 3124 3127 3130 3132 3133 3136 3136 3137 3141 3143 3145 3148 3152 3154 3156 3158 3160 3161 3163 3165 3166 3166 3167 3167 3168 3168 3168 3167 3167 3167 3167 3167 3166 3165 3164 3163 3162
3102 3104 3108 3111 3114 3116 3119 3122 3124 3127 3128 3132 3134 3134 3137 3140 3142 3145 3149 3152 3153 3156 3158 3160 3161 3163 3164 3165 3166 3166 3166 3166 3166 3166 3166 3166 3165 3165 3164 3164 3162 3161 3160
3097 3099 3102 3105 3108 3111 3114 3116 3119 3122 3125 3127 3130 3132 3133 3135 3139 3142 3145 3147 3150 3153 3155 3157 3159 3161 3162 3163 3164 3164 3164 3164 3165 3165 3164 3164 3163 3163 3163 3162 3161 3160 3158
3091 3094 3097 3099 3102 3105 3109 3112 3115 3119 3121 3122 3125 3128 3130 3131 3133 3137 3140 3143 3146 3149 3151 3153 3156 3158 3159 3160 3161 3162 3162 3162 3162 3163 3163 3162 3162 3161 3160 3160 3159 3157 3156
3083 3086 3089 3094 3097 3100 3104 3107 3110 3113 3115 3118 3121 3124 3125 3125 3127 3131 3133 3138 3142 3145 3147 3148 3152 3154 3156 3158 3159 3160 3160 3159 3160 3161 3160 3160 3160 3159 3158 3156 3156 3154 3153
3073 3078 3084 3088 3091 3095 3098 3102 3105 3108 3108 3111 3114 3117 3118 3118 3118 3126 3126 3131 3135 3139 3142 3145 3148 3151 3153 3155 3156 3156 3157 3157 3158 3158 3158 3158 3158 3157 3156 3155 3155 3152 3150
3064 3070 3076 3081 3086 3089 3093 3095 3098 3101 3103 3103 3106 3110 3111 3114 3114 3117 3119 3122 3130 3135 3138 3142 3144 3146 3149 3151 3152 3153 3153 3153 3154 3155 3155 3155 3155 3154 3154 3152 3152 3149 3148
3055 3062 3067 3072 3077 3082 3086 3089 3090 3092 3096 3097 3098 3100 3105 3106 3107 3092 3109 3114 3119 3130 3135 3137 3140 3142 3146 3147 3148 3148 3149 3150 3151 3151 3151 3151 3151 3150 3149 3148 3148 3146 3144
3046 3053 3060 3065 3071 3075 3079 3082 3083 3084 3086 3086 3088 3090 3093 3097 3103 3098 3100 3106 3111 3123 3129 3133 3138 3139 3142 3142 3143 3145 3144 3145 3146 3146 3146 3146 3146 3145 3144 3144 3142 3141 3138
3038 3047 3054 3060 3064 3069 3073 3074 3074 3076 3078 3076 3077 3079 3084 3088 3096 3098 3102 3103 3109 3118 3121 3127 3132 3134 3137 3138 3139 3139 3140 3141 3142 3141 3142 3141 3141 3140 3139 3138 3135 3135 3134
3032 3040 3048 3053 3058 3062 3066 3066 3068 3067 3073 3070 3072 3075 3078 3085 3089 3091 3096 3099 3106 3112 3117 3123 3127 3129 3132 3132 3133 3134 3133 3133 3136 3136 3135 3135 3134 3134 3132 3131 3130 3129 3127
3028 3035 3041 3046 3051 3056 3060 3061 3062 3063 3066 3070 3070 3071 3076 3081 3084 3087 3092 3095 3102 3110 3115 3120 3121 3123 3125 3126 3126 3128 3127 3128 3128 3127 3129 3129 3128 3127 3126 3125 3123 3121 3120
3024 3029 3035 3040 3046 3050 3053 3054 3055 3058 3061 3063 3065 3068 3069 3073 3079 3083 3088 3091 3099 3105 3110 3113 3116 3118 3118 3119 3121 3121 3121 3121 3122 3121 3121 3121 3120 3120 3118 3118 3117 3114 3113
3018 3023 3028 3034 3040 3044 3047 3047 3049 3053 3055 3056 3061 3063 3067 3071 3075 3079 3082 3088 3097 3101 3105 3108 3108 3109 3110 3112 3113 3114 3116 3115 3114 3114 3113 3112 3112 3110 3109 3108 3110 3109 3107